STARLINK-34800

Last updated on Tue Sep 16 2025 00:02:07 GMT+0000 (Coordinated Universal Time)

1 65361U 25190L 25257.41407832 .00178177 00000+0 15567-2 0 9994 2 65361 53.1600 270.7277 0005100 131.2810 228.8647 15.67871628 2248
UTC large
Height (km)
Speed (km/s)
/
Latitude / Longitude
Inclination (degrees)
Orbital Period (minutes)
Azimuth
Elevation
Range (km)
Doppler Factor

Next 0 passes for location: London (51.5072 / 0.1276)

Sorry there are no passes over London.